User: anonymous   Login
Location: Unspecified
(0.0000°N, 0.0000°E)
Time: 07:00:03
(UTC+00:00)
Language:

NOSS 3-4 (A) - Orbit

View from above orbital plane
View from above orbital plane
View from above satellite
View from above satellite

Ground track
Ground track

The orbit data is extracted from the following two-line orbital elements,

1 31701U 07027A   18344.50754646 0.00000000  00000-0  00000-0 0    08
2 31701  63.4011 143.0489 0234000  20.7280 339.2719 13.40770272    03
Epoch (UTC): 10 December 2018 12:10:52
Eccentricity: 0.0234000
inclination: 63.4011°
perigee height: 931 km
apogee height: 1281 km
right ascension of ascending node: 143.0489°
argument of perigee: 20.7280°
revolutions per day: 13.40770272
mean anomaly at epoch: 339.2719°
orbit number at epoch: 0

The dashed part of the orbit path shows where the satellite is in the earth's shadow,  

DLR